When you browse on this site, cookies collect data to enhance your experience and personalize the content and advertising you see.
Visit our Privacy Policy to learn more. By continuing to use the site, you agree to this use of cookies and data.
  • en France
  • Liste des pays
  • À 7 jours
  • Température de l'eau
  • Carte satellitaire
  • Carte météo
  • Widgets météo
  • user-avatar
    Se connecter

    Météo par heure à Sucre

    Ce jour, 27 Mai, Lundi

    Heure Température Précipitation Vent Pression Humidité
    00:00 +12°C° 0 mm 1 m/s 540 mmHg 37%
    01:00 +12°C° 0 mm 1 m/s 539 mmHg 37%
    02:00 +11°C° 0 mm 1 m/s 539 mmHg 37%
    03:00 +11°C° 0 mm 1 m/s 539 mmHg 36%
    04:00 +10°C° 0 mm 1 m/s 538 mmHg 34%
    05:00 +10°C° 0 mm 1 m/s 538 mmHg 33%
    06:00 +11°C° 0 mm 1 m/s 539 mmHg 30%
    07:00 +13°C° 0 mm 1 m/s 540 mmHg 28%
    08:00 +14°C° 0 mm 1 m/s 541 mmHg 26%
    09:00 +16°C° 0 mm 1 m/s 542 mmHg 21%
    10:00 +19°C° 0 mm 1 m/s 543 mmHg 16%
    11:00 +21°C° 0 mm 1 m/s 544 mmHg 12%
    12:00 +21°C° 0 mm 2 m/s 543 mmHg 12%
    13:00 +22°C° 0 mm 3 m/s 543 mmHg 12%
    14:00 +23°C° 0 mm 4 m/s 543 mmHg 13%
    15:00 +22°C° 0 mm 4 m/s 542 mmHg 15%
    16:00 +21°C° 0 mm 4 m/s 542 mmHg 18%
    17:00 +21°C° 0 mm 3 m/s 542 mmHg 21%
    18:00 +19°C° 0 mm 3 m/s 541 mmHg 32%
    19:00 +17°C° 0 mm 2 m/s 541 mmHg 43%
    20:00 +14°C° 0 mm 1 m/s 540 mmHg 54%
    21:00 +14°C° 0 mm 1 m/s 540 mmHg 59%
    22:00 +13°C° 0 mm 1 m/s 540 mmHg 64%
    23:00 +13°C° 0 mm 1 m/s 540 mmHg 69%

    Demain, 28 Mai, Mardi

    Heure Température Précipitation Vent Pression Humidité
    00:00 +12°C° 0 mm 1 m/s 540 mmHg 68%
    01:00 +12°C° 0 mm 1 m/s 540 mmHg 66%
    02:00 +11°C° 0 mm 1 m/s 539 mmHg 65%
    03:00 +11°C° 0 mm 1 m/s 539 mmHg 61%
    04:00 +10°C° 0 mm 1 m/s 539 mmHg 56%
    05:00 +10°C° 0 mm 1 m/s 538 mmHg 52%
    06:00 +11°C° 0 mm 1 m/s 540 mmHg 45%
    07:00 +12°C° 0 mm 1 m/s 541 mmHg 37%
    08:00 +14°C° 0 mm 1 m/s 542 mmHg 30%
    09:00 +16°C° 0 mm 1 m/s 543 mmHg 25%
    10:00 +18°C° 0 mm 2 m/s 544 mmHg 19%
    11:00 +20°C° 0 mm 2 m/s 544 mmHg 14%
    12:00 +21°C° 0 mm 3 m/s 544 mmHg 13%
    13:00 +21°C° 0 mm 4 m/s 544 mmHg 13%
    14:00 +22°C° 0 mm 4 m/s 544 mmHg 13%
    15:00 +22°C° 0 mm 4 m/s 543 mmHg 16%
    16:00 +21°C° 0 mm 4 m/s 543 mmHg 19%
    17:00 +20°C° 0 mm 3 m/s 542 mmHg 22%
    18:00 +18°C° 0 mm 3 m/s 542 mmHg 32%
    19:00 +16°C° 0 mm 2 m/s 541 mmHg 41%
    20:00 +15°C° 0 mm 1 m/s 541 mmHg 51%
    21:00 +14°C° 0 mm 1 m/s 541 mmHg 59%
    22:00 +13°C° 0 mm 1 m/s 541 mmHg 67%
    23:00 +13°C° 0 mm 1 m/s 541 mmHg 74%

    Après-demain, 29 Mai, Mercredi

    Heure Température Précipitation Vent Pression Humidité
    00:00 +12°C° 0 mm 1 m/s 541 mmHg 78%
    01:00 +12°C° 0 mm 1 m/s 541 mmHg 81%
    02:00 +12°C° 0 mm 1 m/s 540 mmHg 84%
    03:00 +12°C° 0 mm 1 m/s 540 mmHg 85%
    04:00 +12°C° 0 mm 2 m/s 540 mmHg 86%
    05:00 +10°C° 0 mm 2 m/s 540 mmHg 87%
    06:00 +12°C° 0 mm 2 m/s 540 mmHg 83%
    07:00 +12°C° 0 mm 2 m/s 541 mmHg 79%
    08:00 +13°C° 0 mm 2 m/s 542 mmHg 75%
    09:00 +13°C° 0 mm 3 m/s 542 mmHg 65%
    10:00 +16°C° 0 mm 3 m/s 543 mmHg 56%
    11:00 +18°C° 0 mm 3 m/s 543 mmHg 47%
    12:00 +19°C° 0 mm 4 m/s 543 mmHg 41%
    13:00 +20°C° 0 mm 4 m/s 543 mmHg 35%
    14:00 +22°C° 0 mm 5 m/s 543 mmHg 30%
    15:00 +21°C° 0 mm 4 m/s 542 mmHg 32%
    16:00 +21°C° 0 mm 4 m/s 542 mmHg 34%
    17:00 +20°C° 0 mm 4 m/s 541 mmHg 37%
    18:00 +19°C° 0 mm 3 m/s 541 mmHg 46%
    19:00 +17°C° 0 mm 2 m/s 540 mmHg 55%
    20:00 +15°C° 0 mm 1 m/s 540 mmHg 65%
    21:00 +14°C° 0 mm 1 m/s 540 mmHg 67%
    22:00 +14°C° 0 mm 1 m/s 540 mmHg 69%
    23:00 +13°C° 0 mm 1 m/s 540 mmHg 71%

    30 Mai, Jeudi

    Heure Température Précipitation Vent Pression Humidité
    00:00 +13°C° 0 mm 1 m/s 540 mmHg 67%
    01:00 +12°C° 0 mm 1 m/s 539 mmHg 63%
    02:00 +12°C° 0 mm 1 m/s 539 mmHg 59%
    03:00 +11°C° 0 mm 1 m/s 539 mmHg 52%
    04:00 +11°C° 0 mm 1 m/s 538 mmHg 45%
    05:00 +11°C° 0 mm 1 m/s 538 mmHg 39%
    06:00 +12°C° 0 mm 1 m/s 539 mmHg 33%
    07:00 +13°C° 0 mm 2 m/s 541 mmHg 28%
    08:00 +14°C° 0 mm 2 m/s 542 mmHg 22%
    09:00 +16°C° 0 mm 2 m/s 543 mmHg 18%
    10:00 +20°C° 0 mm 1 m/s 544 mmHg 13%
    11:00 +22°C° 0 mm 1 m/s 545 mmHg 8%
    12:00 +23°C° 0 mm 2 m/s 544 mmHg 8%
    13:00 +24°C° 0 mm 3 m/s 544 mmHg 8%
    14:00 +25°C° 0 mm 3 m/s 544 mmHg 8%
    15:00 +25°C° 0 mm 3 m/s 543 mmHg 10%
    16:00 +24°C° 0 mm 3 m/s 543 mmHg 13%
    17:00 +23°C° 0 mm 2 m/s 543 mmHg 15%
    18:00 +20°C° 0 mm 2 m/s 542 mmHg 23%
    19:00 +18°C° 0 mm 2 m/s 541 mmHg 32%
    20:00 +15°C° 0 mm 1 m/s 540 mmHg 40%
    21:00 +14°C° 0 mm 1 m/s 540 mmHg 49%
    22:00 +14°C° 0 mm 1 m/s 540 mmHg 58%
    23:00 +13°C° 0 mm 1 m/s 540 mmHg 67%

    31 Mai, Vendredi

    Heure Température Précipitation Vent Pression Humidité
    00:00 +12°C° 0 mm 1 m/s 540 mmHg 70%
    01:00 +12°C° 0 mm 1 m/s 539 mmHg 72%
    02:00 +10°C° 0 mm 0 m/s 539 mmHg 75%
    03:00 +11°C° 0 mm 1 m/s 539 mmHg 75%
    04:00 +11°C° 0 mm 1 m/s 539 mmHg 75%
    05:00 +11°C° 0 mm 1 m/s 539 mmHg 75%
    06:00 +12°C° 0 mm 1 m/s 540 mmHg 73%
    07:00 +12°C° 0 mm 2 m/s 540 mmHg 71%
    08:00 +13°C° 0 mm 2 m/s 541 mmHg 70%
    09:00 +14°C° 0 mm 2 m/s 542 mmHg 63%
    10:00 +16°C° 0 mm 2 m/s 542 mmHg 57%
    11:00 +17°C° 0 mm 3 m/s 543 mmHg 50%
    12:00 +18°C° 0 mm 3 m/s 542 mmHg 44%
    13:00 +20°C° 0 mm 4 m/s 542 mmHg 38%
    14:00 +21°C° 0 mm 4 m/s 542 mmHg 32%
    15:00 +20°C° 0 mm 4 m/s 541 mmHg 34%
    16:00 +20°C° 0 mm 4 m/s 541 mmHg 37%
    17:00 +20°C° 0 mm 4 m/s 540 mmHg 39%
    18:00 +18°C° 0 mm 3 m/s 540 mmHg 50%
    19:00 +16°C° 0 mm 2 m/s 540 mmHg 61%
    20:00 +14°C° 0 mm 2 m/s 539 mmHg 72%
    21:00 +14°C° 0 mm 1 m/s 539 mmHg 75%
    22:00 +13°C° 0 mm 1 m/s 539 mmHg 77%
    23:00 +13°C° 0 mm 1 m/s 539 mmHg 79%

    1 Juin, Samedi

    Heure Température Précipitation Vent Pression Humidité
    00:00 +12°C° 0 mm 1 m/s 539 mmHg 76%
    01:00 +11°C° 0 mm 0 m/s 539 mmHg 73%
    02:00 +10°C° 0 mm 0 m/s 538 mmHg 69%
    03:00 +10°C° 0 mm 0 m/s 538 mmHg 65%
    04:00 +9°C° 0 mm 0 m/s 538 mmHg 61%
    05:00 +9°C° 0 mm 0 m/s 538 mmHg 57%
    06:00 +11°C° 0 mm 1 m/s 539 mmHg 49%
    07:00 +12°C° 0 mm 1 m/s 540 mmHg 41%
    08:00 +13°C° 0 mm 1 m/s 541 mmHg 32%
    09:00 +15°C° 0 mm 1 m/s 542 mmHg 26%
    10:00 +18°C° 0 mm 1 m/s 543 mmHg 20%
    11:00 +20°C° 0 mm 1 m/s 544 mmHg 13%
    12:00 +20°C° 0 mm 2 m/s 544 mmHg 16%
    13:00 +21°C° 0 mm 4 m/s 543 mmHg 18%
    14:00 +21°C° 0 mm 5 m/s 543 mmHg 21%
    15:00 +20°C° 0 mm 5 m/s 542 mmHg 31%
    16:00 +19°C° 0 mm 5 m/s 542 mmHg 41%
    17:00 +16°C° 0 mm 6 m/s 541 mmHg 51%
    18:00 +15°C° 0.1 mm 4 m/s 541 mmHg 61%
    19:00 +14°C° 0.1 mm 3 m/s 541 mmHg 71%
    20:00 +14°C° 0.1 mm 2 m/s 541 mmHg 81%
    21:00 +13°C° 0.2 mm 2 m/s 541 mmHg 81%
    22:00 +13°C° 0.2 mm 2 m/s 541 mmHg 81%
    23:00 +13°C° 0.2 mm 2 m/s 541 mmHg 81%
    Voir plus